Home > Weather > Eberswalde > Past weeks

Flag for Germany Weather for the Past 2 Weeks in Eberswalde, Brandenburg, Germany

Now
43 °F

Passing clouds.


Feels Like: 39 °F
Forecast: 34 / 40 °F
Wind: 6 mph from Southeast

Location: Berlin-Tegel

Current Time: Feb 13, 2016 at 12:47:18 PM

Latest Report: Feb 13, 2016 at 12:20 PM


Visibility: N/A

Pressure: 29.42 "Hg

Humidity: 61%

Dew point: 30 °F

Location of EberswaldeLocation

Historic Weather in Eberswalde — Graph

°F

Eberswalde Temperature Yesterday

Maximum temperature yesterday: 43 °F (at 12:50 PM)
Minimum temperature yesterday: 30 °F (at 1:20 AM)
Average temperature yesterday: 37 °F

High & Low Weather Summary for the Past Weeks

 TemperatureHumidityPressure
High54 °F (Feb 2, 12:50 PM)100% (Feb 1, 12:20 PM)30.24 "Hg (Feb 1, 12:20 PM)
Low28 °F (Feb 13, 5:50 AM)44% (Feb 2, 1:20 PM)28.94 "Hg (Feb 9, 9:50 PM)
Average43 °F76%29.70 "Hg
* Reported Jan 29 11:20 AM — Feb 13 11:20 AM, Eberswalde, Weather by CustomWeather, © 2016

Note: Actual official high and low records may vary slightly from our data, if they occured in-between our weather recording intervals... More about our weather records

Advertising

Eberswalde Weather History for the Previous 24 Hours

 ConditionsComfort  
Time TempWeatherWind HumidityBarometerVisibility
11:20 AM
Sat, Feb 13
39 °FPassing clouds.5 mph70%29.45 "HgN/A
10:50 AM37 °FPassing clouds.5 mph75%29.45 "HgN/A
10:20 AM36 °FPassing clouds.6 mph81%29.45 "HgN/A
9:50 AM36 °FPassing clouds.5 mph81%29.45 "HgN/A
9:20 AM32 °FPassing clouds.3 mph87%29.47 "HgN/A
8:50 AM32 °FPassing clouds.3 mph87%29.45 "HgN/A
8:20 AM32 °FSunny.2 mph87%29.47 "Hg10 mi
7:50 AM30 °FFog.3 mph93%29.47 "HgN/A
7:20 AM30 °FFog.2 mph93%29.47 "HgN/A
6:50 AM30 °FFog.2 mph86%29.47 "HgN/A
6:20 AM28 °FFog.2 mph93%29.47 "HgN/A
5:50 AM28 °FFog.2 mph93%29.47 "HgN/A
5:20 AM30 °FClear.2 mph93%29.47 "Hg10 mi
4:20 AM32 °FFog.3 mph87%29.47 "HgN/A
3:20 AM30 °FFog.2 mph93%29.50 "HgN/A
2:20 AM30 °FFog.2 mph93%29.50 "HgN/A
1:50 AM30 °FFog.2 mph93%29.50 "HgN/A
1:20 AM30 °FFog.1 mph86%29.50 "HgN/A
12:50 AM30 °FFog.1 mph93%29.50 "HgN/A
12:20 AM30 °FClear.2 mph93%29.50 "Hg10 mi
11:50 PM
Fri, Feb 12
30 °FClear.1 mph86%29.53 "Hg10 mi
11:20 PM34 °FClear.3 mph81%29.53 "Hg10 mi
10:20 PM36 °FPassing clouds.3 mph81%29.53 "HgN/A
9:50 PM37 °FClear.3 mph75%29.53 "Hg10 mi
9:20 PM37 °FClear.2 mph75%29.53 "Hg10 mi
8:50 PM37 °FClear.1 mph75%29.53 "Hg10 mi
8:20 PM37 °FClear.3 mph70%29.53 "Hg10 mi
7:50 PM39 °FClear.2 mph70%29.53 "Hg10 mi
7:20 PM39 °FClear.1 mph70%29.53 "Hg10 mi
6:50 PM39 °FClear.2 mph70%29.53 "Hg10 mi
6:20 PM41 °FPassing clouds.3 mph66%29.56 "HgN/A
5:50 PM41 °FPassing clouds.3 mph61%29.56 "HgN/A
5:20 PM43 °FPassing clouds.1 mph57%29.56 "HgN/A
4:50 PM41 °FPartly sunny.No wind61%29.56 "HgN/A
4:20 PM41 °FPartly sunny.3 mph66%29.56 "HgN/A
3:50 PM43 °FScattered clouds.6 mph61%29.56 "HgN/A
3:20 PM43 °FScattered clouds.7 mph61%29.56 "HgN/A
2:50 PM43 °FScattered clouds.8 mph66%29.56 "HgN/A
2:20 PM43 °FScattered clouds.9 mph61%29.56 "HgN/A
1:50 PM41 °FScattered clouds.8 mph70%29.56 "HgN/A
1:20 PM41 °FPartly sunny.10 mph70%29.59 "HgN/A
12:50 PM43 °FScattered clouds.10 mph66%29.59 "HgN/A
12:20 PM41 °FScattered clouds.9 mph70%29.59 "HgN/A
Weather by CustomWeather, © 2016

See weather overviewHow to use our weather pages